period_start,C,m1,H,J0,J1,J2,J3,J4,J5,JA,JB,JC,JD,JJ,JK,JN,#
2015-08-30 00:02:29,0.00,1.55,0.00,26.10,30.15,32.91,14.36,50.58,1011.73,2025.05,2840.99,2787.19,3020.04,600.29,587.35,47.49,0000 0000 0000 0000 000000
2015-08-30 00:07:30,0.03,1.55,0.00,26.08,30.12,32.89,14.28,50.44,1011.70,2025.23,2840.95,2787.09,3020.02,599.69,586.76,47.54,0000 0000 0000 0000 000000
2015-08-30 00:12:32,0.03,1.56,0.00,26.07,30.10,32.85,14.40,50.73,1011.54,2025.54,2840.81,2787.07,3020.01,599.76,586.82,47.59,0000 0000 0000 0000 000000
2015-08-30 00:17:33,0.03,1.56,0.00,26.06,30.08,32.84,14.31,50.38,1011.45,2025.89,2840.69,2787.09,3020.01,599.81,586.77,47.64,0000 0000 0000 0000 000000
2015-08-30 00:22:34,-0.01,1.56,0.00,26.05,30.06,32.81,14.29,50.37,1011.57,2025.93,2840.48,2787.05,3020.00,600.12,587.17,47.69,0000 0000 0000 0000 000000
2015-08-30 00:27:35,0.01,1.56,0.00,26.02,30.04,32.79,14.24,50.33,1011.59,2025.98,2840.08,2787.01,3020.00,599.81,586.76,47.74,0000 0000 0000 0000 000000
2015-08-30 00:32:37,-0.00,1.56,0.00,26.02,30.02,32.77,14.33,50.30,1011.73,2025.99,2840.03,2787.03,3020.00,600.44,587.47,47.79,0000 0000 0000 0000 000000
2015-08-30 00:37:38,0.00,1.56,0.00,26.02,30.00,32.73,14.29,50.28,1011.74,2025.99,2840.01,2787.03,3020.00,599.79,586.90,47.84,0000 0000 0000 0000 000000
2015-08-30 00:42:40,0.00,1.56,0.00,26.02,29.98,32.71,14.29,50.28,1011.75,2025.99,2840.01,2787.02,3020.00,599.88,587.14,47.89,0000 0000 0000 0000 000000
2015-08-30 00:47:41,0.00,1.56,0.00,26.00,29.96,32.67,14.35,50.39,1011.93,2026.00,2840.00,2787.00,3019.99,600.00,587.44,47.95,0000 0000 0000 0000 000000
2015-08-30 00:52:42,0.00,1.56,0.00,26.00,29.94,32.66,14.29,50.32,1012.06,2026.02,2839.99,2787.00,3019.99,599.74,587.11,48.00,0000 0000 0000 0000 000000
2015-08-30 00:57:43,0.01,1.56,0.00,26.00,29.92,32.64,14.22,50.20,1012.18,2026.06,2839.96,2787.00,3019.98,599.49,587.12,48.05,0000 0000 0000 0000 000000
2015-08-30 01:02:45,0.01,1.56,0.00,26.00,29.90,32.63,14.31,50.36,1012.22,2026.12,2839.95,2787.00,3019.99,599.91,587.47,48.10,0000 0000 0000 0000 000000
2015-08-30 01:07:46,0.02,1.56,0.00,25.99,29.89,32.62,14.27,50.21,1012.22,2026.28,2839.51,2787.00,3019.99,599.89,587.46,48.15,0000 0000 0000 0000 000000
2015-08-30 01:12:48,0.02,1.56,0.00,25.98,29.87,32.60,14.29,50.17,1012.22,2026.54,2839.08,2786.98,3019.72,599.79,587.43,48.20,0000 0000 0000 0000 000000
2015-08-30 01:17:49,0.04,1.56,0.00,25.98,29.86,32.58,14.39,50.32,1012.22,2026.79,2839.03,2786.94,3019.38,600.10,587.50,48.25,0000 0000 0000 0000 000000
2015-08-30 01:22:50,0.02,1.57,0.00,26.00,29.85,32.58,14.33,50.33,1012.22,2026.91,2838.97,2786.70,3019.06,600.03,587.47,48.30,0000 0000 0000 0000 000000
2015-08-30 01:27:52,0.00,1.57,0.00,25.98,29.84,32.56,14.33,50.24,1012.22,2026.96,2838.98,2786.64,3019.04,600.31,587.88,48.35,0000 0000 0000 0000 000000
2015-08-30 01:32:53,0.02,1.57,0.00,25.97,29.82,32.56,14.33,50.22,1012.22,2026.97,2838.76,2786.25,3019.01,600.21,587.82,48.40,0000 0000 0000 0000 000000
2015-08-30 01:37:54,0.01,1.57,0.00,25.98,29.82,32.54,14.29,50.14,1012.22,2026.98,2838.78,2786.09,3019.00,599.93,587.56,48.45,0000 0000 0000 0000 000000
2015-08-30 01:42:55,0.01,1.57,0.00,25.98,29.80,32.53,14.32,50.38,1012.24,2026.97,2838.24,2786.02,3019.00,600.09,587.67,48.50,0000 0000 0000 0000 000000
2015-08-30 01:47:57,0.00,1.57,0.00,25.97,29.80,32.53,14.25,50.17,1012.26,2026.98,2838.04,2786.01,3018.99,599.63,587.29,48.55,0000 0000 0000 0000 000000
2015-08-30 01:52:58,0.00,1.57,0.00,25.97,29.79,32.53,14.37,50.06,1012.39,2026.99,2838.00,2786.00,3018.97,600.08,587.74,48.60,0000 0000 0000 0000 000000
2015-08-30 01:57:59,0.00,1.57,0.00,25.97,29.77,32.52,14.34,50.11,1012.39,2026.99,2838.00,2786.00,3018.94,600.21,587.84,48.65,0000 0000 0000 0000 000000
2015-08-30 02:03:00,0.00,1.57,0.00,25.96,29.77,32.52,14.40,50.42,1012.28,2026.99,2837.99,2786.00,3018.82,600.00,587.68,48.70,0000 0000 0000 0000 000000
2015-08-30 02:08:01,0.01,1.57,0.00,25.95,29.77,32.51,14.31,50.30,1012.25,2026.99,2837.67,2785.98,3018.34,599.67,587.33,48.75,0000 0000 0000 0000 000000
2015-08-30 02:13:03,0.01,1.57,0.00,25.95,29.75,32.49,14.39,50.17,1012.27,2027.00,2837.21,2785.96,3018.08,600.12,587.91,48.80,0000 0000 0000 0000 000000
2015-08-30 02:18:04,0.00,1.57,0.00,25.95,29.75,32.48,14.34,50.27,1012.27,2027.00,2837.03,2785.89,3018.01,599.95,587.48,48.85,0000 0000 0000 0000 000000
2015-08-30 02:23:06,0.01,1.57,0.00,25.95,29.75,32.49,14.38,50.14,1012.37,2027.04,2837.00,2785.65,3018.01,599.87,587.60,48.90,0000 0000 0000 0000 000000
2015-08-30 02:28:07,0.01,1.57,0.00,25.96,29.74,32.47,14.30,50.16,1012.42,2027.04,2836.99,2785.11,3018.00,599.78,587.52,48.96,0000 0000 0000 0000 000000
2015-08-30 02:33:08,0.01,1.57,0.00,25.96,29.73,32.47,14.33,50.21,1012.39,2027.08,2836.86,2785.04,3017.98,600.06,587.84,49.01,0000 0000 0000 0000 000000
2015-08-30 02:38:10,0.02,1.57,0.00,25.95,29.72,32.47,14.30,50.13,1012.49,2027.10,2836.39,2785.00,3017.92,599.83,587.61,49.06,0000 0000 0000 0000 000000
2015-08-30 02:43:12,0.02,1.57,0.00,25.95,29.72,32.44,14.31,50.20,1012.55,2027.18,2836.01,2785.00,3017.46,600.13,587.91,49.11,0000 0000 0000 0000 000000
2015-08-30 02:48:13,0.02,1.57,0.00,25.95,29.72,32.45,14.26,50.27,1012.65,2027.21,2835.99,2784.99,3017.06,599.79,587.71,49.16,0000 0000 0000 0000 000000
2015-08-30 02:53:15,0.01,1.58,0.00,25.95,29.72,32.44,14.40,50.42,1012.64,2027.41,2835.84,2784.77,3017.03,600.11,587.80,49.21,0000 0000 0000 0000 000000
2015-08-30 02:58:16,0.03,1.58,0.00,25.95,29.71,32.43,14.30,50.12,1012.68,2027.24,2835.09,2784.13,3016.98,599.89,587.99,49.26,0000 0000 0000 0000 000000
2015-08-30 03:03:17,0.02,1.58,0.00,25.95,29.70,32.45,14.39,50.23,1012.58,2027.40,2835.00,2784.01,3016.85,600.22,588.03,49.31,0000 0000 0000 0000 000000
2015-08-30 03:08:19,0.02,1.58,0.00,25.95,29.70,32.45,14.37,50.60,1012.48,2027.55,2834.91,2784.00,3016.21,600.18,587.99,49.36,0000 0000 0000 0000 000000
2015-08-30 03:13:20,0.03,1.58,0.00,25.95,29.70,32.44,14.25,49.98,1012.35,2027.74,2834.52,2783.99,3016.01,599.80,587.46,49.41,0000 0000 0000 0000 000000
2015-08-30 03:18:22,0.02,1.58,0.00,25.95,29.70,32.44,14.25,50.08,1012.36,2027.86,2834.05,2783.97,3016.00,599.71,587.44,49.46,0000 0000 0000 0000 000000
2015-08-30 03:23:23,0.01,1.58,0.00,25.95,29.70,32.44,14.35,50.52,1012.28,2027.90,2833.99,2783.70,3015.99,600.08,587.72,49.51,0000 0000 0000 0000 000000
2015-08-30 03:28:24,0.02,1.58,0.00,25.95,29.70,32.44,14.29,50.26,1012.36,2027.94,2833.95,2783.18,3015.90,599.93,587.60,49.56,0000 0000 0000 0000 000000
2015-08-30 03:33:26,0.03,1.59,0.00,25.95,29.68,32.43,14.26,50.22,1012.45,2027.96,2833.26,2783.00,3015.27,599.81,587.71,49.61,0000 0000 0000 0000 000000
2015-08-30 03:38:27,0.01,1.59,0.00,25.94,29.67,32.41,14.34,50.36,1012.57,2027.97,2833.01,2782.99,3015.02,600.13,587.93,49.66,0000 0000 0000 0000 000000
2015-08-30 03:43:28,0.01,1.59,0.00,25.92,29.67,32.43,14.27,50.30,1012.61,2027.94,2832.98,2782.75,3014.98,599.45,587.39,49.71,0000 0000 0000 0000 000000
2015-08-30 03:48:30,0.02,1.59,0.00,25.92,29.67,32.40,14.28,50.39,1012.60,2027.97,2832.70,2782.37,3014.97,599.61,587.43,49.76,0000 0000 0000 0000 000000
2015-08-30 03:53:31,0.03,1.59,0.00,25.92,29.67,32.39,14.28,50.13,1012.62,2027.97,2832.12,2782.04,3014.55,599.76,587.66,49.81,0000 0000 0000 0000 000000
2015-08-30 03:58:32,0.01,1.59,0.00,25.92,29.67,32.42,14.36,50.43,1012.62,2027.97,2832.00,2782.00,3014.06,600.14,588.05,49.87,0000 0000 0000 0000 000000
2015-08-30 04:03:33,0.00,1.59,0.00,25.92,29.65,32.41,14.34,50.44,1012.68,2027.98,2831.90,2781.98,3014.00,600.17,588.08,49.92,0000 0000 0000 0000 000000
2015-08-30 04:08:34,0.01,1.59,0.00,25.92,29.65,32.38,14.33,50.33,1012.65,2027.99,2831.58,2781.93,3013.99,599.97,587.89,49.97,0000 0000 0000 0000 000000
2015-08-30 04:13:35,0.04,1.59,0.00,25.92,29.65,32.39,14.24,50.25,1012.69,2027.99,2831.02,2781.43,3013.69,599.53,587.74,50.02,0000 0000 0000 0000 000000
2015-08-30 04:18:37,0.02,1.59,0.00,25.91,29.65,32.37,14.31,50.32,1012.70,2027.98,2830.60,2781.01,3013.05,599.73,587.59,50.07,0000 0000 0000 0000 000000
2015-08-30 04:23:38,0.00,1.59,0.00,25.92,29.65,32.39,14.36,50.30,1012.71,2027.99,2830.05,2781.00,3013.00,600.44,588.29,50.12,0000 0000 0000 0000 000000
2015-08-30 04:28:39,0.00,1.59,0.00,25.92,29.64,32.39,14.36,50.33,1012.71,2027.99,2830.01,2780.97,3012.98,600.26,588.13,50.17,0000 0000 0000 0000 000000
2015-08-30 04:33:41,0.01,1.59,0.00,25.90,29.63,32.38,14.40,50.54,1012.70,2027.99,2829.98,2780.75,3012.87,600.07,588.15,50.22,0000 0000 0000 0000 000000
2015-08-30 04:38:42,0.03,1.60,0.00,25.90,29.63,32.38,14.34,50.40,1012.70,2027.99,2829.72,2780.14,3012.23,600.25,588.23,50.27,0000 0000 0000 0000 000000
2015-08-30 04:43:43,0.01,1.60,0.00,25.90,29.62,32.36,14.38,50.44,1012.71,2027.99,2829.16,2780.02,3012.02,600.21,588.09,50.32,0000 0000 0000 0000 000000
2015-08-30 04:48:44,0.00,1.60,0.00,25.90,29.62,32.39,14.29,50.24,1012.71,2027.99,2829.00,2780.00,3012.00,600.06,588.00,50.37,0000 0000 0000 0000 000000
2015-08-30 04:53:46,0.00,1.60,0.00,25.88,29.62,32.38,14.36,50.25,1012.71,2027.99,2828.98,2779.98,3011.96,600.27,588.09,50.42,0000 0000 0000 0000 000000
2015-08-30 04:58:47,0.02,1.60,0.00,25.89,29.62,32.36,14.30,50.37,1012.71,2027.99,2828.57,2779.75,3011.60,599.32,587.42,50.47,0000 0000 0000 0000 000000
2015-08-30 05:03:48,0.03,1.60,0.00,25.87,29.62,32.37,14.43,50.57,1012.71,2027.99,2828.08,2779.26,3011.11,600.50,588.54,50.52,0000 0000 0000 0000 000000
2015-08-30 05:08:49,0.00,1.60,0.00,25.87,29.60,32.37,14.32,50.41,1012.71,2027.99,2828.00,2779.05,3011.02,600.17,588.29,50.57,0000 0000 0000 0000 000000
2015-08-30 05:13:50,0.00,1.60,0.00,25.87,29.60,32.37,14.32,50.42,1012.71,2027.99,2827.99,2779.00,3011.00,599.88,587.94,50.62,0000 0000 0000 0000 000000
2015-08-30 05:18:52,0.00,1.60,0.00,25.85,29.60,32.35,14.34,50.27,1012.71,2027.99,2827.91,2779.00,3010.98,599.89,587.98,50.67,0000 0000 0000 0000 000000
2015-08-30 05:23:53,0.01,1.60,0.00,25.85,29.60,32.36,14.28,50.16,1012.71,2027.99,2827.34,2778.98,3010.92,599.89,587.94,50.72,0000 0000 0000 0000 000000
2015-08-30 05:28:55,0.01,1.60,0.00,25.85,29.60,32.36,14.28,50.24,1012.71,2027.99,2827.01,2778.89,3010.46,599.68,587.66,50.78,0000 0000 0000 0000 000000
2015-08-30 05:33:56,0.02,1.60,0.00,25.85,29.58,32.36,14.40,50.34,1012.71,2027.99,2826.99,2778.54,3010.06,599.99,588.15,50.83,0000 0000 0000 0000 000000
2015-08-30 05:38:57,0.01,1.60,0.00,25.85,29.57,32.35,14.29,50.40,1012.71,2027.99,2826.90,2778.09,3010.00,599.85,587.94,50.88,0000 0000 0000 0000 000000
2015-08-30 05:43:59,0.01,1.61,0.00,25.85,29.57,32.34,14.39,50.55,1012.71,2028.00,2826.52,2778.01,3010.00,600.15,588.14,50.93,0000 0000 0000 0000 000000
2015-08-30 05:49:00,0.00,1.61,0.00,25.84,29.57,32.33,14.32,50.39,1012.71,2028.01,2826.04,2778.00,3009.96,599.53,587.64,50.98,0000 0000 0000 0000 000000
2015-08-30 05:54:01,0.00,1.61,0.00,25.83,29.57,32.33,14.39,50.33,1012.71,2028.01,2826.00,2778.00,3009.93,600.02,588.02,51.03,0000 0000 0000 0000 000000
2015-08-30 05:59:02,0.00,1.61,0.00,25.83,29.56,32.33,14.33,50.32,1012.71,2028.01,2826.00,2777.97,3009.65,600.09,588.21,51.08,0000 0000 0000 0000 000000
2015-08-30 06:04:04,0.00,1.61,0.00,25.82,29.55,32.32,14.28,50.25,1012.71,2028.01,2825.98,2777.96,3009.48,599.94,588.02,51.13,0000 0000 0000 0000 000000
2015-08-30 06:09:05,0.00,1.61,0.00,25.82,29.55,32.32,14.35,50.40,1012.71,2028.01,2825.96,2777.89,3009.13,600.03,588.12,51.18,0000 0000 0000 0000 000000
2015-08-30 06:14:06,0.03,1.61,0.00,25.82,29.55,32.32,14.36,50.47,1012.71,2028.04,2825.55,2777.50,3009.02,599.65,587.84,51.23,0000 0000 0000 0000 000000
2015-08-30 06:19:07,0.01,1.61,0.00,25.82,29.55,32.31,14.35,50.37,1012.71,2028.02,2825.04,2777.08,3009.00,599.99,588.13,51.28,0000 0000 0000 0000 000000
2015-08-30 06:24:08,0.00,1.61,0.00,25.82,29.55,32.30,14.36,50.38,1012.73,2028.07,2825.00,2777.03,3008.99,599.97,588.13,51.33,0000 0000 0000 0000 000000
2015-08-30 06:29:10,-0.00,1.61,0.00,25.82,29.53,32.30,14.36,50.23,1012.73,2028.03,2824.98,2777.00,3008.96,600.08,588.16,51.38,0000 0000 0000 0000 000000
2015-08-30 06:34:11,0.00,1.61,0.00,25.82,29.53,32.28,14.39,50.59,1012.73,2028.07,2824.93,2777.00,3008.90,600.26,588.28,51.43,0000 0000 0000 0000 000000
2015-08-30 06:39:12,0.01,1.61,0.00,25.81,29.52,32.31,14.32,50.52,1012.74,2028.10,2824.68,2777.00,3008.67,600.48,588.65,51.48,0000 0000 0000 0000 000000
2015-08-30 06:44:13,0.02,1.61,0.00,25.80,29.52,32.30,14.34,50.31,1012.74,2028.11,2824.08,2776.99,3008.18,599.86,588.05,51.53,0000 0000 0000 0000 000000
2015-08-30 06:49:14,0.01,1.61,0.00,25.80,29.52,32.29,14.38,50.33,1012.76,2028.19,2824.00,2776.82,3008.03,600.22,588.38,51.58,0000 0000 0000 0000 000000
2015-08-30 06:54:16,0.06,1.61,0.00,25.81,29.52,32.29,14.31,50.22,1012.76,2028.60,2823.96,2776.44,3008.00,599.86,588.22,51.63,0000 0000 0000 0000 000000
2015-08-30 06:59:17,0.03,1.62,0.00,25.81,29.52,32.30,14.34,50.30,1012.74,2028.82,2823.36,2776.10,3007.99,600.26,588.62,51.68,0000 0000 0000 0000 000000
2015-08-30 07:04:18,0.00,1.62,0.00,25.80,29.51,32.29,14.37,50.32,1012.75,2028.78,2822.99,2776.00,3007.79,599.97,588.19,51.73,0000 0000 0000 0000 000000
2015-08-30 07:09:20,0.02,1.62,0.00,25.80,29.50,32.28,14.30,50.26,1012.76,2028.84,2822.84,2775.99,3007.21,599.87,588.09,51.79,0000 0000 0000 0000 000000
2015-08-30 07:14:21,0.01,1.62,0.00,25.80,29.50,32.29,14.34,50.38,1012.74,2028.90,2822.31,2775.95,3007.04,600.19,588.47,51.84,0000 0000 0000 0000 000000
2015-08-30 07:19:22,0.00,1.62,0.00,25.78,29.50,32.27,14.34,50.18,1012.71,2028.92,2822.20,2775.93,3007.02,600.12,588.34,51.89,0000 0000 0000 0000 000000
2015-08-30 07:24:23,0.00,1.62,0.00,25.78,29.50,32.27,14.26,50.13,1012.71,2028.96,2822.24,2775.85,3007.02,599.72,588.01,51.94,0000 0000 0000 0000 000000
2015-08-30 07:29:25,0.01,1.62,0.00,25.77,29.50,32.26,14.34,50.41,1012.71,2028.95,2822.10,2775.64,3007.01,600.25,588.45,51.99,0000 0000 0000 0000 000000
2015-08-30 07:34:26,0.01,1.62,0.00,25.77,29.50,32.26,14.39,50.39,1012.71,2028.92,2822.01,2775.24,3007.00,599.95,588.38,52.04,0000 0000 0000 0000 000000
2015-08-30 07:39:27,0.01,1.62,0.00,25.77,29.49,32.26,14.29,50.33,1012.71,2028.90,2821.99,2775.05,3006.99,600.12,588.34,52.09,0000 0000 0000 0000 000000
2015-08-30 07:44:28,0.00,1.62,0.00,25.77,29.48,32.27,14.42,50.51,1012.71,2028.95,2821.95,2775.03,3006.99,600.29,588.55,52.14,0000 0000 0000 0000 000000
2015-08-30 07:49:29,-0.00,1.62,0.00,25.76,29.47,32.28,14.41,50.39,1012.71,2028.96,2821.93,2775.01,3006.98,600.13,588.33,52.19,0000 0000 0000 0000 000000
2015-08-30 07:54:31,0.00,1.62,0.00,25.75,29.47,32.26,14.30,50.29,1012.71,2028.96,2821.88,2775.00,3006.98,600.00,588.23,52.24,0000 0000 0000 0000 000000
2015-08-30 07:59:32,0.00,1.62,0.00,25.74,29.47,32.27,14.30,50.10,1012.71,2028.98,2821.82,2775.00,3006.96,600.09,588.42,52.29,0000 0000 0000 0000 000000
2015-08-30 08:04:34,0.01,1.62,0.00,25.74,29.47,32.26,14.43,50.52,1012.71,2028.98,2821.48,2775.00,3006.89,600.24,588.55,52.34,0000 0000 0000 0000 000000
2015-08-30 08:09:35,0.00,1.62,0.00,25.72,29.47,32.25,14.33,50.19,1012.72,2028.98,2821.14,2774.99,3006.81,600.33,588.65,52.39,0000 0000 0000 0000 000000
2015-08-30 08:14:36,0.01,1.62,0.00,25.72,29.45,32.26,14.28,50.42,1012.71,2028.98,2821.03,2774.98,3006.42,600.07,588.30,52.44,0000 0000 0000 0000 000000
2015-08-30 08:19:38,0.01,1.62,0.00,25.72,29.45,32.24,14.33,50.43,1012.71,2028.98,2820.96,2774.95,3006.10,599.95,588.13,52.49,0000 0000 0000 0000 000000
2015-08-30 08:24:39,0.01,1.63,0.00,25.72,29.45,32.23,14.33,50.24,1012.74,2028.99,2820.41,2774.85,3006.01,599.72,588.08,52.54,0000 0000 0000 0000 000000
2015-08-30 08:29:40,-0.00,1.62,0.00,25.72,29.45,32.23,14.29,50.38,1012.78,2028.99,2820.77,2774.77,3006.01,599.95,588.31,52.59,0000 0000 0000 0000 000000
2015-08-30 08:34:42,-0.01,1.62,0.00,25.72,29.45,32.23,14.34,50.37,1012.83,2028.99,2820.97,2774.83,3006.03,600.22,588.56,52.65,0000 0000 0000 0000 000000
2015-08-30 08:39:43,-0.00,1.62,0.00,25.72,29.43,32.23,14.37,50.43,1013.10,2028.99,2821.00,2774.94,3006.10,600.12,588.69,52.70,0000 0000 0000 0000 000000
2015-08-30 08:44:44,-0.00,1.62,0.00,25.72,29.42,32.22,14.30,50.21,1013.19,2028.99,2821.01,2774.95,3006.18,599.84,588.64,52.75,0000 0000 0000 0000 000000
2015-08-30 08:49:45,-0.00,1.62,0.00,25.70,29.42,32.23,14.35,50.42,1013.20,2028.99,2821.04,2774.98,3006.37,600.33,588.90,52.80,0000 0000 0000 0000 000000
2015-08-30 08:54:47,-0.00,1.62,0.00,25.69,29.42,32.23,14.35,50.34,1013.21,2028.99,2821.03,2774.98,3006.52,600.08,588.79,52.85,0000 0000 0000 0000 000000
2015-08-30 08:59:48,-0.00,1.62,0.00,25.66,29.41,32.22,14.31,50.23,1013.27,2028.99,2821.05,2774.99,3006.76,600.05,588.90,52.90,0000 0000 0000 0000 000000
2015-08-30 09:04:49,-0.01,1.62,0.00,25.62,29.40,32.22,14.33,50.20,1013.48,2028.99,2821.18,2774.99,3006.91,599.96,588.96,52.95,0000 0000 0000 0000 000000
2015-08-30 09:09:50,0.00,1.62,0.00,25.56,29.40,32.20,14.44,50.21,1013.62,2029.00,2821.21,2774.99,3006.94,600.33,589.44,53.00,0000 0000 0000 0000 000000
2015-08-30 09:14:52,-0.01,1.62,0.00,25.53,29.37,32.19,14.35,50.32,1013.65,2029.00,2821.76,2774.99,3006.97,600.20,589.47,53.05,0000 0000 0000 0000 000000
2015-08-30 09:19:53,0.00,1.62,0.00,25.52,29.37,32.17,14.33,50.39,1013.68,2029.00,2821.97,2774.99,3006.98,599.74,589.19,53.10,0000 0000 0000 0000 000000
2015-08-30 09:24:54,0.00,1.62,0.00,25.52,29.35,32.17,14.38,50.23,1013.69,2029.01,2821.96,2775.00,3006.99,600.06,589.45,53.15,0000 0000 0000 0000 000000
2015-08-30 09:29:55,0.00,1.62,0.00,25.52,29.35,32.14,14.33,50.24,1013.70,2029.02,2821.97,2775.03,3006.99,600.15,589.49,53.20,0000 0000 0000 0000 000000
2015-08-30 09:34:56,0.00,1.62,0.00,25.52,29.33,32.14,14.44,50.47,1013.69,2029.02,2821.99,2775.15,3006.99,600.35,589.65,53.25,0000 0000 0000 0000 000000
2015-08-30 09:39:58,-0.00,1.62,0.00,25.52,29.32,32.13,14.37,50.39,1013.69,2029.02,2822.03,2775.32,3007.00,599.91,589.22,53.30,0000 0000 0000 0000 000000
2015-08-30 09:44:59,-0.02,1.62,0.00,25.52,29.32,32.13,14.39,50.48,1013.70,2029.04,2822.29,2775.70,3007.02,599.94,589.19,53.35,0000 0000 0000 0000 000000
2015-08-30 09:50:01,-0.00,1.62,0.00,25.52,29.30,32.11,14.40,50.44,1013.70,2029.04,2822.64,2775.79,3007.05,599.94,589.33,53.40,0000 0000 0000 0000 000000
2015-08-30 09:55:02,-0.00,1.62,0.00,25.52,29.30,32.11,14.43,50.33,1013.77,2029.06,2822.71,2775.90,3007.13,600.04,589.39,53.45,0000 0000 0000 0000 000000
2015-08-30 10:00:03,-0.01,1.62,0.00,25.51,29.30,32.12,14.43,50.33,1013.76,2029.08,2822.84,2775.94,3007.18,600.26,589.58,53.50,0000 0000 0000 0000 000000
2015-08-30 10:05:05,-0.00,1.62,0.00,25.50,29.28,32.12,14.36,50.51,1013.70,2029.03,2822.90,2775.96,3007.28,599.90,589.23,53.55,0000 0000 0000 0000 000000
2015-08-30 10:10:06,-0.01,1.62,0.00,25.50,29.27,32.12,14.35,50.55,1013.69,2029.04,2822.97,2775.98,3007.63,599.98,589.23,53.61,0000 0000 0000 0000 000000
2015-08-30 10:15:07,0.00,1.62,0.00,25.47,29.27,32.10,14.26,50.23,1013.69,2029.04,2822.97,2775.98,3007.51,599.41,588.83,53.66,0000 0000 0000 0000 000000
2015-08-30 10:20:08,0.00,1.62,0.00,25.47,29.27,32.10,14.31,50.33,1013.70,2029.04,2822.95,2775.97,3007.46,599.68,589.11,53.71,0000 0000 0000 0000 000000
2015-08-30 10:25:09,-0.00,1.62,0.00,25.46,29.25,32.12,14.45,50.55,1013.70,2029.03,2822.98,2775.99,3007.63,600.23,589.58,53.76,0000 0000 0000 0000 000000
2015-08-30 10:30:11,0.01,1.62,0.00,25.45,29.25,32.10,14.28,50.26,1013.70,2029.14,2822.98,2775.99,3007.85,599.74,589.14,53.81,0000 0000 0000 0000 000000
2015-08-30 10:35:12,0.03,1.62,0.00,25.44,29.25,32.10,14.47,50.38,1013.74,2029.42,2822.98,2775.99,3007.90,600.50,589.96,53.86,0000 0000 0000 0000 000000
2015-08-30 10:40:13,-0.01,1.62,0.00,25.42,29.24,32.09,14.33,50.06,1013.95,2029.42,2822.94,2775.99,3007.83,600.12,589.66,53.91,0000 0000 0000 0000 000000
2015-08-30 10:45:15,-0.01,1.62,0.00,25.41,29.22,32.08,14.31,49.97,1013.99,2029.24,2822.90,2775.98,3007.66,599.93,589.78,53.96,0000 0000 0000 0000 000000
2015-08-30 10:50:16,0.02,1.62,0.00,25.37,29.22,32.08,14.39,50.20,1013.94,2029.44,2822.94,2775.99,3007.84,600.16,589.79,54.01,0000 0000 0000 0000 000000
2015-08-30 10:55:17,0.02,1.62,0.00,25.35,29.22,32.09,14.37,50.48,1014.08,2029.65,2822.95,2775.99,3007.94,599.70,589.52,54.06,0000 0000 0000 0000 000000
2015-08-30 11:00:18,0.01,1.62,0.00,25.33,29.20,32.08,14.31,50.03,1014.14,2029.78,2822.98,2775.99,3007.95,599.88,589.97,54.11,0000 0000 0000 0000 000000
2015-08-30 11:05:20,0.00,1.62,0.00,25.30,29.20,32.06,14.50,50.44,1014.16,2029.86,2822.98,2775.99,3007.98,600.36,590.42,54.16,0000 0000 0000 0000 000000
2015-08-30 11:10:21,0.00,1.62,0.00,25.29,29.19,32.06,14.25,50.17,1014.13,2029.93,2822.99,2776.00,3007.99,599.64,589.73,54.21,0000 0000 0000 0000 000000
2015-08-30 11:15:23,-0.00,1.62,0.00,25.27,29.17,32.05,14.45,50.47,1013.96,2029.95,2822.99,2776.01,3007.99,600.21,590.18,54.26,0000 0000 0000 0000 000000
2015-08-30 11:20:24,0.00,1.62,0.00,25.26,29.17,32.03,14.39,50.52,1013.76,2029.97,2822.99,2776.02,3007.99,600.07,589.96,54.31,0000 0000 0000 0000 000000
2015-08-30 11:25:25,-0.00,1.62,0.00,25.25,29.16,32.03,14.36,50.25,1013.84,2029.98,2822.99,2776.05,3007.99,600.16,589.99,54.36,0000 0000 0000 0000 000000
2015-08-30 11:30:26,0.00,1.62,0.00,25.22,29.15,32.02,14.41,50.33,1014.07,2029.99,2823.00,2776.06,3007.99,599.67,589.83,54.41,0000 0000 0000 0000 000000
2015-08-30 11:35:27,0.00,1.62,0.00,25.21,29.15,32.00,14.32,50.43,1014.12,2029.99,2823.00,2776.07,3007.99,600.11,590.38,54.47,0000 0000 0000 0000 000000
2015-08-30 11:40:29,0.00,1.62,0.00,25.20,29.14,32.00,14.37,50.45,1014.16,2029.99,2823.00,2776.07,3007.99,599.99,590.16,54.52,0000 0000 0000 0000 000000
2015-08-30 11:45:30,0.00,1.62,0.00,25.17,29.12,31.99,14.50,50.72,1014.17,2029.99,2822.98,2776.08,3007.99,600.48,590.80,54.57,0000 0000 0000 0000 000000
2015-08-30 11:50:31,0.00,1.62,0.00,25.17,29.12,31.99,14.30,50.17,1014.17,2029.99,2822.97,2776.06,3007.99,599.54,590.03,54.62,0000 0000 0000 0000 000000
2015-08-30 11:55:32,-0.00,1.62,0.00,25.15,29.11,31.97,14.44,50.37,1014.18,2030.00,2822.99,2776.13,3007.99,600.23,590.56,54.67,0000 0000 0000 0000 000000
2015-08-30 12:00:33,-0.00,1.62,0.00,25.14,29.10,31.95,14.32,50.07,1014.19,2030.01,2822.98,2776.19,3007.99,600.00,590.38,54.72,0000 0000 0000 0000 000000
2015-08-30 12:05:35,-0.01,1.62,0.00,25.11,29.10,31.95,14.48,50.51,1014.19,2030.02,2822.99,2776.44,3007.99,600.19,590.55,54.77,0000 0000 0000 0000 000000
2015-08-30 12:10:36,0.00,1.62,0.00,25.10,29.08,31.95,14.35,50.30,1014.19,2030.01,2822.99,2776.49,3007.99,599.78,590.36,54.82,0000 0000 0000 0000 000000
2015-08-30 12:15:37,-0.00,1.62,0.00,25.08,29.07,31.96,14.36,50.45,1014.19,2030.02,2822.99,2776.53,3007.99,600.13,590.67,54.87,0000 0000 0000 0000 000000
2015-08-30 12:20:39,-0.00,1.62,0.00,25.07,29.07,31.94,14.35,50.33,1014.20,2030.07,2822.97,2776.73,3007.99,599.90,590.39,54.92,0000 0000 0000 0000 000000
2015-08-30 12:25:40,-0.00,1.62,0.00,25.05,29.05,31.93,14.38,50.17,1014.22,2030.08,2822.99,2776.85,3008.01,600.05,590.55,54.97,0000 0000 0000 0000 000000
2015-08-30 12:30:42,0.01,1.62,0.00,25.05,29.05,31.92,14.42,50.06,1014.20,2030.12,2822.99,2776.90,3008.02,599.95,590.55,55.02,0000 0000 0000 0000 000000
2015-08-30 12:35:43,0.01,1.62,0.00,25.03,29.04,31.91,14.33,50.13,1014.22,2030.21,2822.99,2776.97,3008.05,600.09,590.68,55.07,0000 0000 0000 0000 000000
2015-08-30 12:40:44,0.02,1.62,0.00,25.02,29.02,31.92,14.41,50.32,1014.25,2030.47,2823.01,2776.98,3008.12,599.98,590.66,55.12,0000 0000 0000 0000 000000
2015-08-30 12:45:45,0.01,1.62,0.00,25.01,29.02,31.92,14.45,50.23,1014.25,2030.52,2823.02,2776.99,3008.38,599.94,590.68,55.17,0000 0000 0000 0000 000000
2015-08-30 12:50:46,0.01,1.63,0.00,25.00,29.02,31.89,14.50,50.11,1014.30,2030.70,2823.03,2776.99,3008.55,599.94,590.59,55.22,0000 0000 0000 0000 000000
2015-08-30 12:55:48,0.00,1.63,0.00,24.99,29.01,31.89,14.24,49.92,1014.28,2030.73,2823.03,2776.99,3008.67,599.55,590.25,55.27,0000 0000 0000 0000 000000